Shawnee Mission, KS

11:24 AM CDT on August 25, 2016 (GMT -0500)
Johnson County Executive

Weather History for KOJC - May, 2012

Change the Weather History Date:

Sunday, May 27, 2012

  Actual Average Record
Temperature  
Mean Temperature 79 °F 68 °F  
Max Temperature 87 °F 78 °F 90 °F (2006)
Min Temperature 71 °F 59 °F 43 °F (1961)
Degree Days  
Heating Degree Days 0 1  
Month to date heating degree days 13 89  
Since 1 July heating degree days 3802 4920  
Cooling Degree Days 14 5  
Month to date cooling degree days 150 65  
Year to date cooling degree days 232 83  
Growing Degree Days 28 (Base 50)    
Moisture  
Dew Point 60 °F    
Average Humidity 58    
Maximum Humidity 79    
Minimum Humidity 37    
Precipitation  
Precipitation 0.00 in 0.17 in 2.20 in (1964)
Month to date precipitation 4.89 4.74  
Year to date precipitation 11.21 14.05  
Sea Level Pressure  
Sea Level Pressure 29.81 in    
Wind  
Wind Speed 13 mph (South)    
Max Wind Speed 24 mph    
Max Gust Speed 48 mph    
Visibility 10 miles    
Events      
T = Trace of Precipitation, MM = Missing Value Source: NWS Daily Summary

Daily Weather History Graph

Daily Weather History Graph

Search for Another Location

Airport or City:

Trip Planner

Search our weather history database for the weather conditions in past years. The results will help you decide how hot, cold, wet, or windy it might be!

Date:

Astronomy

May. 27, 2012 Rise Set
Actual Time 5:57 AM CDT 8:35 PM CDT
Civil Twilight 5:26 AM CDT 9:06 PM CDT
Nautical Twilight 4:48 AM CDT 9:44 PM CDT
Astronomical Twilight 4:04 AM CDT 10:28 PM CDT
Moon 12:01 PM CDT (5/27) 12:44 AM CDT (5/27)
Length of Visible Light 15h 39m
Length of Day
14h 37m
Waxing Crescent, 38% of the Moon is Illuminated
May 27
Waxing Crescent
May 28
First Quarter
Jun 4
Full
Jun 11
Last Quarter
Jun 19
New

Hourly Weather History & Observations

Time (CDT) Temp. Heat Index Dew Point Humidity Pressure Visibility Wind Dir Wind Speed Gust Speed Precip Events Conditions
12:53 AM 75.0 °F - 64.0 °F 69% 29.86 in 10.0 mi South 8.1 mph - N/A   Clear
1:53 AM 73.9 °F - 64.0 °F 71% 29.88 in 10.0 mi South 9.2 mph - N/A   Clear
3:53 AM 72.0 °F - 64.9 °F 78% 29.88 in 10.0 mi South 8.1 mph - N/A   Clear
4:53 AM 72.0 °F - 64.9 °F 78% 29.88 in 10.0 mi South 11.5 mph - N/A   Clear
5:53 AM 71.1 °F - 64.9 °F 81% 29.88 in 10.0 mi South 10.4 mph - N/A   Clear
6:53 AM 71.1 °F - 64.0 °F 78% 29.90 in 10.0 mi South 10.4 mph - N/A   Clear
7:53 AM 72.0 °F - 64.0 °F 76% 29.88 in 10.0 mi SSW 17.3 mph 23.0 mph N/A   Clear
8:53 AM 75.9 °F - 64.0 °F 67% 29.88 in 10.0 mi SSW 15.0 mph 24.2 mph N/A   Clear
9:53 AM 79.0 °F - 64.0 °F 60% 29.86 in 10.0 mi SSW 12.7 mph 26.5 mph N/A   Clear
10:53 AM 81.0 °F 82.2 °F 63.0 °F 54% 29.85 in 10.0 mi SSW 18.4 mph 28.8 mph N/A   Clear
11:53 AM 82.9 °F 83.7 °F 62.1 °F 49% 29.84 in 10.0 mi SSW 15.0 mph 26.5 mph N/A   Clear
12:53 PM 84.0 °F 84.4 °F 61.0 °F 46% 29.83 in 10.0 mi South 16.1 mph 24.2 mph N/A   Clear
1:53 PM 86.0 °F 85.4 °F 59.0 °F 40% 29.82 in 10.0 mi SSW 18.4 mph 24.2 mph N/A   Clear
2:53 PM 86.0 °F 85.0 °F 57.9 °F 38% 29.80 in 10.0 mi South 18.4 mph 25.3 mph N/A   Clear
3:53 PM 84.0 °F 83.5 °F 57.9 °F 41% 29.78 in 10.0 mi South 19.6 mph 29.9 mph N/A   Clear
4:53 PM 84.0 °F 83.8 °F 59.0 °F 43% 29.78 in 10.0 mi South 13.8 mph 24.2 mph N/A   Clear
5:53 PM 82.9 °F 82.0 °F 55.0 °F 38% 29.76 in 10.0 mi South 13.8 mph 25.3 mph N/A   Clear
6:53 PM 81.0 °F 80.7 °F 55.0 °F 41% 29.74 in 10.0 mi South 9.2 mph - N/A   Clear
7:53 PM 80.1 °F 80.1 °F 55.0 °F 42% 29.73 in 10.0 mi South 12.7 mph - N/A   Clear
8:53 PM 80.1 °F 80.0 °F 54.0 °F 40% 29.73 in 10.0 mi South 9.2 mph 18.4 mph N/A   Clear
9:53 PM 78.1 °F - 55.0 °F 45% 29.72 in 10.0 mi South 12.7 mph 19.6 mph N/A   Clear
10:53 PM 77.0 °F - 55.0 °F 47% 29.72 in 10.0 mi South 12.7 mph 21.9 mph N/A   Clear
11:53 PM 75.9 °F - 57.0 °F 52% 29.71 in 10.0 mi South 12.7 mph - N/A   Clear